{"data":{"norad_id":60592,"intl_designator":"2024-150K","name":"STARLINK-31497","alt_names":[],"object_type":"PAYLOAD","status":"ACTIVE","operator":null,"country":"US","launch_date":"2024-08-20","launch_site_code":"AFETR","launch_vehicle":null,"mission":null,"orbit_class":"UNKNOWN","rcs_meters":null,"size_class":null,"mass_kg":null,"dimensions":null,"purposes":["comms"],"wikipedia_slug":null,"has_3d_model":false,"image_url":null,"decayed_at":null,"tle_current":{"epoch":"2026-05-25T04:16:17.954976Z","epoch_age_seconds":56989,"freshness":"FRESH","line1":"1 60592U 24150K   26145.17798559  .00000464  00000+0  24876-4 0  9997","line2":"2 60592  53.1605 310.9273 0001133  92.5968 267.5164 15.34390604 99763","mean_motion":15.34390604,"eccentricity":0.0001133,"inclination_deg":53.1605,"raan_deg":310.9273,"arg_perigee_deg":92.5968,"mean_anomaly_deg":267.5164,"bstar":2.4876e-5,"rev_number":9976,"period_min":93.848332767815,"perigee_km":461.95609687839,"apogee_km":463.50623760508,"semimajor_km":6840.8681672417,"source":"CELESTRAK","updated_at":"2026-05-25T13:38:19.280034Z"}}}